STARLINK-11198, 60114

Orbit data source: Space-Track

STARLINK-11198, 60114 is a payload satellite owned by SpaceX/Seattle (US) in LEO that was launched on Mon, 24 Jun 2024 UTC via an FALCON 9 launch vehicle from the Air Force Western Test Range (AFWTR). Payload-class satellites include a variety of spacecraft equipped with specific instruments for various scientific and technological missions. These include communications satellites like Starlink; space stations such as the ISS; scientific satellites like the Hubble; Earth observation satellites from companies like Planet Labs, Umbra, and HawkEye 360; GPS; miniature CubeSats for education and research; and military/defense satellites.

Loading next visibility...
Identifier
60114, 2024-118B
Orbit
LEO
Country
Flag of USUS
Related business
Manufacturer
SpaceX/Seattle
Mission
Operational spacecraft
Bus & Motor
STARLINK V2MD, Unknown motor
Mass
960 kg wet, ~910 kg dry
Launch date (UTC)
2024-06-24 (1 year ago)
Launch vehicle
FALCON 9
Launch site
Air Force Western Test Range (AFWTR)
Object type
Payload
Rocket body
Debris
Shape & HBR
Unknown
Radar Cross Section
Large (>1 m²)

Expand to show TLE details & history
Last TLE update: 15 hours ago

TLE from 15 hours ago
0 STARLINK-11198
1 60114U 24118B   25260.27889344 -.00001968  00000-0 -11389-4 0  9990
2 60114  53.1589 356.3766 0001041  87.0760 273.0377 15.69713545 70759
Epoch: 2025-09-17T06:41Z
TLE epoch observation values (Epoch: 2025-09-17T06:41:36.393Z)
Latitude
-0.00001°
Longitude
-100.48217°
Altitude
360.594 km
Speed
7.694 km/s
True Right ascension
23h 45m 30s
True Declination
0° 00' 00"
Sunlit
Object was in full shadow at epoch
Visualization orbit readout
Latitude
Unknown
Longitude
Unknown
Altitude
Unknown
Speed
Unknown
Apparent Right ascension
Unknown
Apparent Declination
Unknown
Sunlit
N/A
Visualization observer readout
Local Sidereal Time
14:16:57
Azimuth
Unknown
Elevation
Unknown
Doppler factor
Unknown
Orbital elements
Apogee altitude
360.679 km
Perigee altitude
359.276 km
Semi-major axis
6,738.114 km
Eccentricity
0.0001
Inclination
53.1589°
RAAN
356.3766°
Arg. of periapsis
87.076°
True anomaly
273.02579°
Mean anomaly
273.0377°
Eccentric anomaly
273.03174°
Mean motion
3.92406 °/min
Orbital period
91.74 mins
BSTAR
-0.000011389
Loading maneuver chart data...
Computing Atmospheric mass density...
Loading historical data...
Loading historical data...
Loading historical data...
Loading historical data...
Loading historical data...
Loading historical data...
Loading historical data...

Documentation

Showing up to 5 results
|